Notices

What's New in latest Release from April 7th, 2021:

- Updated Glossary, including Speed of Maximum Gust, and Total Hourly Precipitation

- Updated national and regional climate services offices contacts and prices information

- Addition of station inventory lists for 1981-2010, 1971-2000, and 1961-1990 Normals.

If you haven't already, please take our survey and provide feedback about our website: https://eccc.sondage-survey.ca/f/LanguageSelection.aspx?s=442ca660-fcf1-47c0-95a9-59707d6fd709

Hourly Data Report for May 29, 2003

TORONTO CITY
ONTARIO

43°40'00.000" N
79°24'00.000" W
112.50 m
6158355
71508
XTO

Download Data

Hourly Data (May 2003)
Hourly Data Report for May 29, 2003
TIME
LST
Temp Definition
°C
Dew Point Definition
°C
Rel Hum Definition
%
Precip. Amount Definition
mm

Wind Dir Definition
10's deg

Wind Spd Definition
km/h
Visibility Definition
km
Stn Press Definition
kPa
Hmdx Definition


Wind Chill Definition


Weather Definition


00:00 14.0 12.1 88   LegendMM LegendMM LegendMM 99.10     LegendNANA
01:00 13.7 11.9 89   LegendMM LegendMM LegendMM 99.04     LegendNANA
02:00 12.8 11.0 89   LegendMM LegendMM LegendMM 98.97     LegendNANA
03:00 13.1 11.2 88   LegendMM LegendMM LegendMM 98.93     LegendNANA
04:00 13.4 11.3 87   LegendMM LegendMM LegendMM 98.91     LegendNANA
05:00 13.7 11.4 86   LegendMM LegendMM LegendMM 98.92     LegendNANA
06:00 14.2 10.8 80   LegendMM LegendMM LegendMM 98.95     LegendNANA
07:00 14.7 10.5 76   LegendMM LegendMM LegendMM 98.92     LegendNANA
08:00 17.8 11.1 65   LegendMM LegendMM LegendMM 98.95     LegendNANA
09:00 18.8 11.1 61   LegendMM LegendMM LegendMM 98.91     LegendNANA
10:00 18.5 11.1 62   LegendMM LegendMM LegendMM 98.89     LegendNANA
11:00 19.6 12.6 64   LegendMM LegendMM LegendMM 98.85     LegendNANA
12:00 20.9 11.5 55   LegendMM LegendMM LegendMM 98.82     LegendNANA
13:00 21.5 11.5 53   LegendMM LegendMM LegendMM 98.76     LegendNANA
14:00 19.1 13.1 68   LegendMM LegendMM LegendMM 98.73     LegendNANA
15:00 20.8 11.2 54   LegendMM LegendMM LegendMM 98.69     LegendNANA
16:00 21.7 12.0 54   LegendMM LegendMM LegendMM 98.70     LegendNANA
17:00 17.7 10.6 63   LegendMM LegendMM LegendMM 98.81     LegendNANA
18:00 19.1 11.7 62   LegendMM LegendMM LegendMM 98.85     LegendNANA
19:00 17.6 11.6 68   LegendMM LegendMM LegendMM 98.92     LegendNANA
20:00 16.9 11.0 68   LegendMM LegendMM LegendMM 98.94     LegendNANA
21:00 16.5 10.8 69   LegendMM LegendMM LegendMM 98.99     LegendNANA
22:00 16.4 10.9 70   LegendMM LegendMM LegendMM 98.99     LegendNANA
23:00 16.0 10.5 70   LegendMM LegendMM LegendMM 98.97     LegendNANA

Notes on Data Quality.

Legend

  • E = Estimated
  • M = Missing
  • NA = Not Available*
  • [empty] = Indicates an unobserved value
Date modified: